Year,Month,Day,Hour,Minute,Value (Times are PST for temperature in C)
2006,08,04,00,00,14.00
2006,08,04,00,01,14.00
2006,08,04,00,02,14.00
2006,08,04,00,03,14.00
2006,08,04,00,04,14.00
2006,08,04,00,05,14.00
2006,08,04,00,06,13.90
2006,08,04,00,07,13.90
2006,08,04,00,08,13.90
2006,08,04,00,09,13.90
2006,08,04,00,10,13.90
2006,08,04,00,11,14.00
2006,08,04,00,12,14.00
2006,08,04,00,13,14.00
2006,08,04,00,14,14.00
2006,08,04,00,15,13.90
2006,08,04,00,16,13.90
2006,08,04,00,17,13.80
2006,08,04,00,18,13.80
2006,08,04,00,19,13.70
2006,08,04,00,20,13.70
2006,08,04,00,21,13.70
2006,08,04,00,22,13.60
2006,08,04,00,23,13.60
2006,08,04,00,24,13.60
2006,08,04,00,25,13.60
2006,08,04,00,26,13.60
2006,08,04,00,27,13.50
2006,08,04,00,28,13.50
2006,08,04,00,29,13.50
2006,08,04,00,30,13.50
2006,08,04,00,31,13.40
2006,08,04,00,32,13.40
2006,08,04,00,33,13.30
2006,08,04,00,34,13.30
2006,08,04,00,35,13.30
2006,08,04,00,36,13.20
2006,08,04,00,37,13.20
2006,08,04,00,38,13.20
2006,08,04,00,39,13.10
2006,08,04,00,40,13.10
2006,08,04,00,41,13.10
2006,08,04,00,42,13.10
2006,08,04,00,43,13.10
2006,08,04,00,44,13.10
2006,08,04,00,45,13.10
2006,08,04,00,46,13.10
2006,08,04,00,47,13.10
2006,08,04,00,48,13.10
2006,08,04,00,49,13.10
2006,08,04,00,50,13.00
2006,08,04,00,51,13.00
2006,08,04,00,52,13.00
2006,08,04,00,53,13.00
2006,08,04,00,54,13.00
2006,08,04,00,55,13.00
2006,08,04,00,56,13.00
2006,08,04,00,57,13.00
2006,08,04,00,58,13.00
2006,08,04,00,59,13.10
2006,08,04,01,00,13.10
2006,08,04,01,01,13.10
2006,08,04,01,02,13.10
2006,08,04,01,03,13.10
2006,08,04,01,04,13.10
2006,08,04,01,05,13.10
2006,08,04,01,06,13.10
2006,08,04,01,07,13.10
2006,08,04,01,08,13.00
2006,08,04,01,09,13.00
2006,08,04,01,10,13.00
2006,08,04,01,11,12.90
2006,08,04,01,12,12.90
2006,08,04,01,13,12.90
2006,08,04,01,14,12.90
2006,08,04,01,15,12.90
2006,08,04,01,16,12.90
2006,08,04,01,17,12.90
2006,08,04,01,18,12.90
2006,08,04,01,19,12.80
2006,08,04,01,20,12.80
2006,08,04,01,21,12.80
2006,08,04,01,22,12.70
2006,08,04,01,23,12.70
2006,08,04,01,24,12.70
2006,08,04,01,25,12.60
2006,08,04,01,26,12.60
2006,08,04,01,27,12.60
2006,08,04,01,28,12.60
2006,08,04,01,29,12.60
2006,08,04,01,30,12.60
2006,08,04,01,31,12.60
2006,08,04,01,32,12.60
2006,08,04,01,33,12.60
2006,08,04,01,34,12.60
2006,08,04,01,35,12.50
2006,08,04,01,36,12.50
2006,08,04,01,37,12.50
2006,08,04,01,38,12.50
2006,08,04,01,39,12.50
2006,08,04,01,40,12.50
2006,08,04,01,41,12.40
2006,08,04,01,42,12.40
2006,08,04,01,43,12.40
2006,08,04,01,44,12.40
2006,08,04,01,45,12.40
2006,08,04,01,46,12.40
2006,08,04,01,47,12.30
2006,08,04,01,48,12.30
2006,08,04,01,49,12.30
2006,08,04,01,50,12.30
2006,08,04,01,51,12.20
2006,08,04,01,52,12.20
2006,08,04,01,53,12.20
2006,08,04,01,54,12.20
2006,08,04,01,55,12.20
2006,08,04,01,56,12.20
2006,08,04,01,57,12.10
2006,08,04,01,58,12.10
2006,08,04,01,59,12.10
2006,08,04,02,00,12.10
2006,08,04,02,01,12.10
2006,08,04,02,02,12.10
2006,08,04,02,03,12.10
2006,08,04,02,04,12.00
2006,08,04,02,05,12.00
2006,08,04,02,06,12.00
2006,08,04,02,07,12.00
2006,08,04,02,08,12.00
2006,08,04,02,09,12.00
2006,08,04,02,10,12.00
2006,08,04,02,11,12.00
2006,08,04,02,12,12.00
2006,08,04,02,13,12.00
2006,08,04,02,14,12.10
2006,08,04,02,15,12.10
2006,08,04,02,16,12.10
2006,08,04,02,17,12.10
2006,08,04,02,18,12.10
2006,08,04,02,19,12.00
2006,08,04,02,20,12.00
2006,08,04,02,21,12.00
2006,08,04,02,22,12.00
2006,08,04,02,23,12.00
2006,08,04,02,24,12.00
2006,08,04,02,25,12.00
2006,08,04,02,26,12.00
2006,08,04,02,27,12.00
2006,08,04,02,28,12.10
2006,08,04,02,29,12.10
2006,08,04,02,30,12.10
2006,08,04,02,31,12.10
2006,08,04,02,32,12.10
2006,08,04,02,33,12.10
2006,08,04,02,34,12.10
2006,08,04,02,35,12.10
2006,08,04,02,36,12.10
2006,08,04,02,37,12.00
2006,08,04,02,38,12.00
2006,08,04,02,39,12.00
2006,08,04,02,40,12.00
2006,08,04,02,41,12.00
2006,08,04,02,42,12.00
2006,08,04,02,43,11.90
2006,08,04,02,44,11.90
2006,08,04,02,45,11.90
2006,08,04,02,46,11.90
2006,08,04,02,47,11.90
2006,08,04,02,48,11.80
2006,08,04,02,49,11.80
2006,08,04,02,50,11.80
2006,08,04,02,51,11.80
2006,08,04,02,52,11.80
2006,08,04,02,53,11.70
2006,08,04,02,54,11.70
2006,08,04,02,55,11.70
2006,08,04,02,56,11.70
2006,08,04,02,57,11.60
2006,08,04,02,58,11.60
2006,08,04,02,59,11.60
2006,08,04,03,00,11.60
2006,08,04,03,01,11.60
2006,08,04,03,02,11.60
2006,08,04,03,03,11.50
2006,08,04,03,04,11.50
2006,08,04,03,05,11.50
2006,08,04,03,06,11.50
2006,08,04,03,07,11.50
2006,08,04,03,08,11.50
2006,08,04,03,09,11.50
2006,08,04,03,10,11.50
2006,08,04,03,11,11.50
2006,08,04,03,12,11.50
2006,08,04,03,13,11.50
2006,08,04,03,14,11.40
2006,08,04,03,15,11.40
2006,08,04,03,16,11.40
2006,08,04,03,17,11.40
2006,08,04,03,18,11.40
2006,08,04,03,19,11.40
2006,08,04,03,20,11.40
2006,08,04,03,21,11.40
2006,08,04,03,22,11.30
2006,08,04,03,23,11.30
2006,08,04,03,24,11.30
2006,08,04,03,25,11.30
2006,08,04,03,26,11.30
2006,08,04,03,27,11.20
2006,08,04,03,28,11.20
2006,08,04,03,29,11.20
2006,08,04,03,30,11.20
2006,08,04,03,31,11.20
2006,08,04,03,32,11.20
2006,08,04,03,33,11.20
2006,08,04,03,34,11.10
2006,08,04,03,35,11.10
2006,08,04,03,36,11.10
2006,08,04,03,37,11.20
2006,08,04,03,38,11.10
2006,08,04,03,39,11.20
2006,08,04,03,40,11.10
2006,08,04,03,41,11.10
2006,08,04,03,42,11.10
2006,08,04,03,43,11.20
2006,08,04,03,44,11.20
2006,08,04,03,45,11.20
2006,08,04,03,46,11.20
2006,08,04,03,47,11.20
2006,08,04,03,48,11.20
2006,08,04,03,49,11.20
2006,08,04,03,50,11.30
2006,08,04,03,51,11.30
2006,08,04,03,52,11.30
2006,08,04,03,53,11.30
2006,08,04,03,54,11.30
2006,08,04,03,55,11.30
2006,08,04,03,56,11.30
2006,08,04,03,57,11.20
2006,08,04,03,58,11.20
2006,08,04,03,59,11.20
2006,08,04,04,00,11.20
2006,08,04,04,01,11.20
2006,08,04,04,02,11.20
2006,08,04,04,03,11.20
2006,08,04,04,04,11.20
2006,08,04,04,05,11.20
2006,08,04,04,06,11.20
2006,08,04,04,07,11.20
2006,08,04,04,08,11.20
2006,08,04,04,09,11.20
2006,08,04,04,10,11.20
2006,08,04,04,11,11.20
2006,08,04,04,12,11.10
2006,08,04,04,13,11.10
2006,08,04,04,14,11.10
2006,08,04,04,15,11.10
2006,08,04,04,16,11.10
2006,08,04,04,17,11.00
2006,08,04,04,18,11.00
2006,08,04,04,19,11.00
2006,08,04,04,20,10.90
2006,08,04,04,21,10.90
2006,08,04,04,22,10.90
2006,08,04,04,23,10.90
2006,08,04,04,24,10.80
2006,08,04,04,25,10.80
2006,08,04,04,26,10.80
2006,08,04,04,27,10.80
2006,08,04,04,28,10.80
2006,08,04,04,29,10.80
2006,08,04,04,30,10.80
2006,08,04,04,31,10.70
2006,08,04,04,32,10.70
2006,08,04,04,33,10.70
2006,08,04,04,34,10.70
2006,08,04,04,35,10.70
2006,08,04,04,36,10.70
2006,08,04,04,37,10.70
2006,08,04,04,38,10.70
2006,08,04,04,39,10.70
2006,08,04,04,40,10.70
2006,08,04,04,41,10.60
2006,08,04,04,42,10.60
2006,08,04,04,43,10.60
2006,08,04,04,44,10.60
2006,08,04,04,45,10.60
2006,08,04,04,46,10.60
2006,08,04,04,47,10.60
2006,08,04,04,48,10.60
2006,08,04,04,49,10.60
2006,08,04,04,50,10.60
2006,08,04,04,51,10.60
2006,08,04,04,52,10.60
2006,08,04,04,53,10.60
2006,08,04,04,54,10.60
2006,08,04,04,55,10.60
2006,08,04,04,56,10.60
2006,08,04,04,57,10.60
2006,08,04,04,58,10.60
2006,08,04,04,59,10.60
2006,08,04,05,00,10.50
2006,08,04,05,01,10.50
2006,08,04,05,02,10.50
2006,08,04,05,03,10.50
2006,08,04,05,04,10.40
2006,08,04,05,05,10.40
2006,08,04,05,06,10.40
2006,08,04,05,07,10.40
2006,08,04,05,08,10.40
2006,08,04,05,09,10.40
2006,08,04,05,10,10.30
2006,08,04,05,11,10.30
2006,08,04,05,12,10.30
2006,08,04,05,13,10.30
2006,08,04,05,14,10.30
2006,08,04,05,15,10.30
2006,08,04,05,16,10.30
2006,08,04,05,17,10.30
2006,08,04,05,18,10.30
2006,08,04,05,19,10.30
2006,08,04,05,20,10.30
2006,08,04,05,21,10.30
2006,08,04,05,22,10.30
2006,08,04,05,23,10.30
2006,08,04,05,24,10.30
2006,08,04,05,25,10.30
2006,08,04,05,26,10.30
2006,08,04,05,27,10.30
2006,08,04,05,28,10.30
2006,08,04,05,29,10.20
2006,08,04,05,30,10.20
2006,08,04,05,31,10.20
2006,08,04,05,32,10.20
2006,08,04,05,33,10.20
2006,08,04,05,34,10.20
2006,08,04,05,35,10.20
2006,08,04,05,36,10.20
2006,08,04,05,37,10.20
2006,08,04,05,38,10.20
2006,08,04,05,39,10.20
2006,08,04,05,40,10.10
2006,08,04,05,41,10.10
2006,08,04,05,42,10.10
2006,08,04,05,43,10.10
2006,08,04,05,44,10.10
2006,08,04,05,45,10.10
2006,08,04,05,46,10.10
2006,08,04,05,47,10.10
2006,08,04,05,48,10.10
2006,08,04,05,49,10.10
2006,08,04,05,50,10.10
2006,08,04,05,51,10.10
2006,08,04,05,52,10.10
2006,08,04,05,53,10.10
2006,08,04,05,54,10.10
2006,08,04,05,55,10.10
2006,08,04,05,56,10.00
2006,08,04,05,57,10.00
2006,08,04,05,58,10.00
2006,08,04,05,59,10.00
2006,08,04,06,00,10.00
2006,08,04,06,01,9.90
2006,08,04,06,02,9.90
2006,08,04,06,03,9.90
2006,08,04,06,04,9.90
2006,08,04,06,05,9.90
2006,08,04,06,06,9.90
2006,08,04,06,07,9.90
2006,08,04,06,08,9.90
2006,08,04,06,09,9.90
2006,08,04,06,10,9.90
2006,08,04,06,11,9.90
2006,08,04,06,12,9.90
2006,08,04,06,13,9.90
2006,08,04,06,14,9.90
2006,08,04,06,15,9.90
2006,08,04,06,16,9.90
2006,08,04,06,17,9.90
2006,08,04,06,18,9.90
2006,08,04,06,19,9.90
2006,08,04,06,20,10.00
2006,08,04,06,21,10.00
2006,08,04,06,22,10.00
2006,08,04,06,23,10.00
2006,08,04,06,24,10.00
2006,08,04,06,25,10.00
2006,08,04,06,26,10.00
2006,08,04,06,27,10.00
2006,08,04,06,28,10.00
2006,08,04,06,29,10.00
2006,08,04,06,30,10.00
2006,08,04,06,31,10.00
2006,08,04,06,32,10.00
2006,08,04,06,33,10.00
2006,08,04,06,34,10.00
2006,08,04,06,35,10.10
2006,08,04,06,36,10.10
2006,08,04,06,37,10.10
2006,08,04,06,38,10.10
2006,08,04,06,39,10.10
2006,08,04,06,40,10.10
2006,08,04,06,41,10.10
2006,08,04,06,42,10.20
2006,08,04,06,43,10.20
2006,08,04,06,44,10.20
2006,08,04,06,45,10.20
2006,08,04,06,46,10.20
2006,08,04,06,47,10.20
2006,08,04,06,48,10.20
2006,08,04,06,49,10.30
2006,08,04,06,50,10.30
2006,08,04,06,51,10.30
2006,08,04,06,52,10.30
2006,08,04,06,53,10.30
2006,08,04,06,54,10.40
2006,08,04,06,55,10.40
2006,08,04,06,56,10.40
2006,08,04,06,57,10.40
2006,08,04,06,58,10.40
2006,08,04,06,59,10.50
2006,08,04,07,00,10.50
2006,08,04,07,01,10.50
2006,08,04,07,02,10.60
2006,08,04,07,03,10.60
2006,08,04,07,04,10.70
2006,08,04,07,05,10.70
2006,08,04,07,06,10.80
2006,08,04,07,07,10.80
2006,08,04,07,08,10.90
2006,08,04,07,09,11.00
2006,08,04,07,10,11.10
2006,08,04,07,11,11.20
2006,08,04,07,12,11.30
2006,08,04,07,13,11.40
2006,08,04,07,14,11.50
2006,08,04,07,15,11.60
2006,08,04,07,16,11.70
2006,08,04,07,17,11.70
2006,08,04,07,18,11.80
2006,08,04,07,19,11.80
2006,08,04,07,20,11.90
2006,08,04,07,21,11.90
2006,08,04,07,22,12.00
2006,08,04,07,23,12.10
2006,08,04,07,24,12.10
2006,08,04,07,25,12.20
2006,08,04,07,26,12.30
2006,08,04,07,27,12.30
2006,08,04,07,28,12.40
2006,08,04,07,29,12.50
2006,08,04,07,30,12.60
2006,08,04,07,31,12.80
2006,08,04,07,32,12.90
2006,08,04,07,33,13.10
2006,08,04,07,34,13.20
2006,08,04,07,35,13.30
2006,08,04,07,36,13.40
2006,08,04,07,37,13.50
2006,08,04,07,38,13.50
2006,08,04,07,39,13.60
2006,08,04,07,40,13.60
2006,08,04,07,41,13.60
2006,08,04,07,42,13.70
2006,08,04,07,43,13.70
2006,08,04,07,44,13.80
2006,08,04,07,45,13.90
2006,08,04,07,46,14.00
2006,08,04,07,47,14.10
2006,08,04,07,48,14.20
2006,08,04,07,49,14.30
2006,08,04,07,50,14.40
2006,08,04,07,51,14.50
2006,08,04,07,52,14.60
2006,08,04,07,53,14.70
2006,08,04,07,54,14.80
2006,08,04,07,55,14.90
2006,08,04,07,56,14.90
2006,08,04,07,57,15.00
2006,08,04,07,58,15.00
2006,08,04,07,59,15.00
2006,08,04,08,00,15.00
2006,08,04,08,01,15.00
2006,08,04,08,02,15.10
2006,08,04,08,03,15.20
2006,08,04,08,04,15.30
2006,08,04,08,05,15.30
2006,08,04,08,06,15.40
2006,08,04,08,07,15.40
2006,08,04,08,08,15.50
2006,08,04,08,09,15.50
2006,08,04,08,10,15.40
2006,08,04,08,11,15.30
2006,08,04,08,12,15.20
2006,08,04,08,13,15.10
2006,08,04,08,14,15.00
2006,08,04,08,15,15.00
2006,08,04,08,16,15.00
2006,08,04,08,17,15.00
2006,08,04,08,18,15.00
2006,08,04,08,19,15.00
2006,08,04,08,20,15.00
2006,08,04,08,21,15.00
2006,08,04,08,22,15.00
2006,08,04,08,23,15.00
2006,08,04,08,24,15.00
2006,08,04,08,25,15.00
2006,08,04,08,26,15.00
2006,08,04,08,27,15.00
2006,08,04,08,28,15.20
2006,08,04,08,29,15.30
2006,08,04,08,30,15.40
2006,08,04,08,31,15.50
2006,08,04,08,32,15.60
2006,08,04,08,33,15.60
2006,08,04,08,34,15.60
2006,08,04,08,35,15.60
2006,08,04,08,36,15.60
2006,08,04,08,37,15.70
2006,08,04,08,38,15.80
2006,08,04,08,39,15.80
2006,08,04,08,40,15.90
2006,08,04,08,41,16.00
2006,08,04,08,42,16.10
2006,08,04,08,43,16.10
2006,08,04,08,44,16.20
2006,08,04,08,45,16.20
2006,08,04,08,46,16.20
2006,08,04,08,47,16.20
2006,08,04,08,48,16.30
2006,08,04,08,49,16.30
2006,08,04,08,50,16.30
2006,08,04,08,51,16.30
2006,08,04,08,52,16.40
2006,08,04,08,53,16.40
2006,08,04,08,54,16.50
2006,08,04,08,55,16.60
2006,08,04,08,56,16.70
2006,08,04,08,57,16.70
2006,08,04,08,58,16.80
2006,08,04,08,59,16.80
2006,08,04,09,00,16.80
2006,08,04,09,01,16.90
2006,08,04,09,02,16.90
2006,08,04,09,03,16.90
2006,08,04,09,04,16.90
2006,08,04,09,05,16.90
2006,08,04,09,06,16.90
2006,08,04,09,07,16.90
2006,08,04,09,08,16.90
2006,08,04,09,09,16.70
2006,08,04,09,10,16.70
2006,08,04,09,11,16.60
2006,08,04,09,12,16.60
2006,08,04,09,13,16.60
2006,08,04,09,14,16.60
2006,08,04,09,15,16.60
2006,08,04,09,16,16.60
2006,08,04,09,17,16.70
2006,08,04,09,18,16.70
2006,08,04,09,19,16.70
2006,08,04,09,20,16.70
2006,08,04,09,21,16.70
2006,08,04,09,22,16.80
2006,08,04,09,23,16.80
2006,08,04,09,24,16.90
2006,08,04,09,25,17.00
2006,08,04,09,26,17.10
2006,08,04,09,27,17.10
2006,08,04,09,28,17.20
2006,08,04,09,29,17.20
2006,08,04,09,30,17.30
2006,08,04,09,31,17.30
2006,08,04,09,32,17.30
2006,08,04,09,33,17.30
2006,08,04,09,34,17.40
2006,08,04,09,35,17.40
2006,08,04,09,36,17.50
2006,08,04,09,37,17.60
2006,08,04,09,38,17.60
2006,08,04,09,39,17.70
2006,08,04,09,40,17.70
2006,08,04,09,41,17.70
2006,08,04,09,42,17.80
2006,08,04,09,43,17.70
2006,08,04,09,44,17.60
2006,08,04,09,45,17.60
2006,08,04,09,46,17.70
2006,08,04,09,47,17.70
2006,08,04,09,48,17.80
2006,08,04,09,49,17.90
2006,08,04,09,50,18.00
2006,08,04,09,51,18.00
2006,08,04,09,52,18.10
2006,08,04,09,53,18.00
2006,08,04,09,54,17.90
2006,08,04,09,55,17.80
2006,08,04,09,56,17.70
2006,08,04,09,57,17.60
2006,08,04,09,58,17.60
2006,08,04,09,59,17.70
2006,08,04,10,00,17.70
2006,08,04,10,01,17.70
2006,08,04,10,02,17.80
2006,08,04,10,03,17.80
2006,08,04,10,04,17.90
2006,08,04,10,05,17.90
2006,08,04,10,06,17.90
2006,08,04,10,07,17.90
2006,08,04,10,08,17.90
2006,08,04,10,09,17.90
2006,08,04,10,10,18.00
2006,08,04,10,11,18.00
2006,08,04,10,12,18.10
2006,08,04,10,13,18.20
2006,08,04,10,14,18.30
2006,08,04,10,15,18.30
2006,08,04,10,16,18.30
2006,08,04,10,17,18.20
2006,08,04,10,18,18.20
2006,08,04,10,19,18.20
2006,08,04,10,20,18.20
2006,08,04,10,21,18.30
2006,08,04,10,22,18.20
2006,08,04,10,23,18.20
2006,08,04,10,24,18.20
2006,08,04,10,25,18.20
2006,08,04,10,26,18.20
2006,08,04,10,27,18.20
2006,08,04,10,28,18.30
2006,08,04,10,29,18.40
2006,08,04,10,30,18.50
2006,08,04,10,31,18.60
2006,08,04,10,32,18.60
2006,08,04,10,33,18.60
2006,08,04,10,34,18.50
2006,08,04,10,35,18.50
2006,08,04,10,36,18.40
2006,08,04,10,37,18.30
2006,08,04,10,38,18.20
2006,08,04,10,39,18.20
2006,08,04,10,40,18.20
2006,08,04,10,41,18.20
2006,08,04,10,42,18.10
2006,08,04,10,43,18.10
2006,08,04,10,44,18.00
2006,08,04,10,45,18.00
2006,08,04,10,46,18.00
2006,08,04,10,47,18.10
2006,08,04,10,48,18.20
2006,08,04,10,49,18.30
2006,08,04,10,50,18.30
2006,08,04,10,51,18.30
2006,08,04,10,52,18.30
2006,08,04,10,53,18.40
2006,08,04,10,54,18.40
2006,08,04,10,55,18.50
2006,08,04,10,56,18.70
2006,08,04,10,57,18.70
2006,08,04,10,58,18.70
2006,08,04,10,59,18.70
2006,08,04,11,00,18.70
2006,08,04,11,01,18.70
2006,08,04,11,02,18.60
2006,08,04,11,03,18.60
2006,08,04,11,04,18.50
2006,08,04,11,05,18.60
2006,08,04,11,06,18.60
2006,08,04,11,07,18.70
2006,08,04,11,08,18.70
2006,08,04,11,09,18.50
2006,08,04,11,10,18.50
2006,08,04,11,11,18.40
2006,08,04,11,12,18.50
2006,08,04,11,13,18.50
2006,08,04,11,14,18.60
2006,08,04,11,15,18.70
2006,08,04,11,16,18.80
2006,08,04,11,17,18.90
2006,08,04,11,18,18.90
2006,08,04,11,19,18.90
2006,08,04,11,20,18.90
2006,08,04,11,21,18.80
2006,08,04,11,22,18.70
2006,08,04,11,23,18.60
2006,08,04,11,24,18.40
2006,08,04,11,25,18.30
2006,08,04,11,26,18.30
2006,08,04,11,27,18.30
2006,08,04,11,28,18.30
2006,08,04,11,29,18.20
2006,08,04,11,30,18.20
2006,08,04,11,31,18.10
2006,08,04,11,32,18.10
2006,08,04,11,33,18.20
2006,08,04,11,34,18.20
2006,08,04,11,35,18.20
2006,08,04,11,36,18.30
2006,08,04,11,37,18.30
2006,08,04,11,38,18.30
2006,08,04,11,39,18.30
2006,08,04,11,40,18.40
2006,08,04,11,41,18.50
2006,08,04,11,42,18.60
2006,08,04,11,43,18.60
2006,08,04,11,44,18.70
2006,08,04,11,45,18.60
2006,08,04,11,46,18.60
2006,08,04,11,47,18.60
2006,08,04,11,48,18.60
2006,08,04,11,49,18.60
2006,08,04,11,50,18.60
2006,08,04,11,51,18.50
2006,08,04,11,52,18.50
2006,08,04,11,53,18.50
2006,08,04,11,54,18.50
2006,08,04,11,55,18.50
2006,08,04,11,56,18.50
2006,08,04,11,57,18.50
2006,08,04,11,58,18.50
2006,08,04,11,59,18.40
2006,08,04,12,00,18.50
2006,08,04,12,01,18.60
2006,08,04,12,02,18.70
2006,08,04,12,03,18.80
2006,08,04,12,04,19.00
2006,08,04,12,05,19.00
2006,08,04,12,06,19.00
2006,08,04,12,07,18.90
2006,08,04,12,08,18.80
2006,08,04,12,09,18.70
2006,08,04,12,10,18.60
2006,08,04,12,11,18.50
2006,08,04,12,12,18.40
2006,08,04,12,13,18.50
2006,08,04,12,14,18.50
2006,08,04,12,15,18.60
2006,08,04,12,16,18.70
2006,08,04,12,17,18.80
2006,08,04,12,18,18.70
2006,08,04,12,19,18.60
2006,08,04,12,20,18.50
2006,08,04,12,21,18.50
2006,08,04,12,22,18.50
2006,08,04,12,23,18.60
2006,08,04,12,24,18.70
2006,08,04,12,25,18.80
2006,08,04,12,26,18.80
2006,08,04,12,27,18.70
2006,08,04,12,28,18.70
2006,08,04,12,29,18.70
2006,08,04,12,30,18.70
2006,08,04,12,31,18.70
2006,08,04,12,32,18.70
2006,08,04,12,33,18.70
2006,08,04,12,34,18.70
2006,08,04,12,35,18.70
2006,08,04,12,36,18.80
2006,08,04,12,37,19.00
2006,08,04,12,38,19.10
2006,08,04,12,39,19.30
2006,08,04,12,40,19.40
2006,08,04,12,41,19.40
2006,08,04,12,42,19.30
2006,08,04,12,43,19.20
2006,08,04,12,44,19.10
2006,08,04,12,45,19.10
2006,08,04,12,46,19.10
2006,08,04,12,47,19.10
2006,08,04,12,48,19.10
2006,08,04,12,49,19.10
2006,08,04,12,50,19.10
2006,08,04,12,51,19.20
2006,08,04,12,52,19.20
2006,08,04,12,53,19.30
2006,08,04,12,54,19.40
2006,08,04,12,55,19.50
2006,08,04,12,56,19.60
2006,08,04,12,57,19.80
2006,08,04,12,58,19.90
2006,08,04,12,59,19.90
2006,08,04,13,00,19.90
2006,08,04,13,01,19.90
2006,08,04,13,02,19.90
2006,08,04,13,03,19.80
2006,08,04,13,04,19.70
2006,08,04,13,05,19.80
2006,08,04,13,06,19.90
2006,08,04,13,07,19.90
2006,08,04,13,08,19.90
2006,08,04,13,09,19.90
2006,08,04,13,10,20.00
2006,08,04,13,11,20.00
2006,08,04,13,12,20.00
2006,08,04,13,13,20.10
2006,08,04,13,14,20.00
2006,08,04,13,15,20.00
2006,08,04,13,16,19.90
2006,08,04,13,17,19.90
2006,08,04,13,18,20.00
2006,08,04,13,19,20.00
2006,08,04,13,20,20.00
2006,08,04,13,21,20.10
2006,08,04,13,22,20.10
2006,08,04,13,23,20.10
2006,08,04,13,24,20.20
2006,08,04,13,25,20.20
2006,08,04,13,26,20.10
2006,08,04,13,27,19.90
2006,08,04,13,28,19.90
2006,08,04,13,29,19.90
2006,08,04,13,30,19.80
2006,08,04,13,31,19.80
2006,08,04,13,32,19.80
2006,08,04,13,33,19.80
2006,08,04,13,34,19.90
2006,08,04,13,35,19.90
2006,08,04,13,36,19.90
2006,08,04,13,37,20.00
2006,08,04,13,38,20.00
2006,08,04,13,39,20.00
2006,08,04,13,40,20.00
2006,08,04,13,41,20.00
2006,08,04,13,42,20.00
2006,08,04,13,43,19.90
2006,08,04,13,44,19.90
2006,08,04,13,45,19.90
2006,08,04,13,46,19.90
2006,08,04,13,47,20.00
2006,08,04,13,48,20.00
2006,08,04,13,49,20.00
2006,08,04,13,50,20.00
2006,08,04,13,51,20.10
2006,08,04,13,52,20.10
2006,08,04,13,53,20.20
2006,08,04,13,54,20.30
2006,08,04,13,55,20.40
2006,08,04,13,56,20.60
2006,08,04,13,57,20.70
2006,08,04,13,58,20.80
2006,08,04,13,59,20.70
2006,08,04,14,00,20.70
2006,08,04,14,01,20.70
2006,08,04,14,02,20.70
2006,08,04,14,03,20.50
2006,08,04,14,04,20.40
2006,08,04,14,05,20.40
2006,08,04,14,06,20.40
2006,08,04,14,07,20.40
2006,08,04,14,08,20.50
2006,08,04,14,09,20.50
2006,08,04,14,10,20.50
2006,08,04,14,11,20.50
2006,08,04,14,12,20.50
2006,08,04,14,13,20.50
2006,08,04,14,14,20.60
2006,08,04,14,15,20.60
2006,08,04,14,16,20.70
2006,08,04,14,17,20.60
2006,08,04,14,18,20.60
2006,08,04,14,19,20.70
2006,08,04,14,20,20.80
2006,08,04,14,21,20.90
2006,08,04,14,22,20.90
2006,08,04,14,23,20.90
2006,08,04,14,24,20.80
2006,08,04,14,25,20.80
2006,08,04,14,26,20.80
2006,08,04,14,27,20.80
2006,08,04,14,28,21.00
2006,08,04,14,29,21.20
2006,08,04,14,30,21.40
2006,08,04,14,31,21.40
2006,08,04,14,32,21.30
2006,08,04,14,33,21.10
2006,08,04,14,34,21.00
2006,08,04,14,35,21.00
2006,08,04,14,36,21.00
2006,08,04,14,37,21.10
2006,08,04,14,38,21.20
2006,08,04,14,39,21.30
2006,08,04,14,40,21.30
2006,08,04,14,41,21.30
2006,08,04,14,42,21.30
2006,08,04,14,43,21.40
2006,08,04,14,44,21.50
2006,08,04,14,45,21.60
2006,08,04,14,46,21.50
2006,08,04,14,47,21.40
2006,08,04,14,48,21.30
2006,08,04,14,49,21.30
2006,08,04,14,50,21.30
2006,08,04,14,51,21.40
2006,08,04,14,52,21.30
2006,08,04,14,53,21.30
2006,08,04,14,54,21.30
2006,08,04,14,55,21.30
2006,08,04,14,56,21.40
2006,08,04,14,57,21.30
2006,08,04,14,58,21.30
2006,08,04,14,59,21.10
2006,08,04,15,00,21.10
2006,08,04,15,01,21.20
2006,08,04,15,02,21.20
2006,08,04,15,03,21.30
2006,08,04,15,04,21.40
2006,08,04,15,05,21.40
2006,08,04,15,06,21.50
2006,08,04,15,07,21.60
2006,08,04,15,08,21.60
2006,08,04,15,09,21.50
2006,08,04,15,10,21.40
2006,08,04,15,11,21.30
2006,08,04,15,12,21.20
2006,08,04,15,13,21.20
2006,08,04,15,14,21.30
2006,08,04,15,15,21.30
2006,08,04,15,16,21.30
2006,08,04,15,17,21.40
2006,08,04,15,18,21.50
2006,08,04,15,19,21.60
2006,08,04,15,20,21.60
2006,08,04,15,21,21.70
2006,08,04,15,22,21.80
2006,08,04,15,23,21.70
2006,08,04,15,24,21.50
2006,08,04,15,25,21.50
2006,08,04,15,26,21.60
2006,08,04,15,27,21.70
2006,08,04,15,28,21.70
2006,08,04,15,29,21.80
2006,08,04,15,30,21.80
2006,08,04,15,31,21.70
2006,08,04,15,32,21.70
2006,08,04,15,33,21.80
2006,08,04,15,34,21.80
2006,08,04,15,35,21.80
2006,08,04,15,36,21.80
2006,08,04,15,37,21.80
2006,08,04,15,38,21.90
2006,08,04,15,39,22.00
2006,08,04,15,40,22.10
2006,08,04,15,41,22.20
2006,08,04,15,42,22.20
2006,08,04,15,43,22.20
2006,08,04,15,44,22.30
2006,08,04,15,45,22.40
2006,08,04,15,46,22.40
2006,08,04,15,47,22.40
2006,08,04,15,48,22.30
2006,08,04,15,49,22.20
2006,08,04,15,50,22.20
2006,08,04,15,51,22.20
2006,08,04,15,52,22.20
2006,08,04,15,53,22.20
2006,08,04,15,54,22.20
2006,08,04,15,55,22.30
2006,08,04,15,56,22.30
2006,08,04,15,57,22.40
2006,08,04,15,58,22.40
2006,08,04,15,59,22.40
2006,08,04,16,00,22.30
2006,08,04,16,01,22.30
2006,08,04,16,02,22.40
2006,08,04,16,03,22.40
2006,08,04,16,04,22.50
2006,08,04,16,05,22.60
2006,08,04,16,06,22.50
2006,08,04,16,07,22.50
2006,08,04,16,08,22.50
2006,08,04,16,09,22.50
2006,08,04,16,10,22.40
2006,08,04,16,11,22.40
2006,08,04,16,12,22.50
2006,08,04,16,13,22.40
2006,08,04,16,14,22.40
2006,08,04,16,15,22.40
2006,08,04,16,16,22.30
2006,08,04,16,17,22.20
2006,08,04,16,18,22.10
2006,08,04,16,19,22.00
2006,08,04,16,20,22.00
2006,08,04,16,21,22.10
2006,08,04,16,22,22.00
2006,08,04,16,23,22.00
2006,08,04,16,24,22.10
2006,08,04,16,25,22.20
2006,08,04,16,26,22.10
2006,08,04,16,27,22.10
2006,08,04,16,28,22.10
2006,08,04,16,29,22.20
2006,08,04,16,30,22.10
2006,08,04,16,31,22.10
2006,08,04,16,32,22.00
2006,08,04,16,33,21.90
2006,08,04,16,34,21.80
2006,08,04,16,35,21.80
2006,08,04,16,36,22.00
2006,08,04,16,37,22.10
2006,08,04,16,38,22.30
2006,08,04,16,39,22.30
2006,08,04,16,40,22.20
2006,08,04,16,41,22.10
2006,08,04,16,42,22.00
2006,08,04,16,43,22.10
2006,08,04,16,44,22.20
2006,08,04,16,45,22.30
2006,08,04,16,46,22.20
2006,08,04,16,47,22.20
2006,08,04,16,48,22.20
2006,08,04,16,49,22.20
2006,08,04,16,50,22.20
2006,08,04,16,51,22.30
2006,08,04,16,52,22.40
2006,08,04,16,53,22.50
2006,08,04,16,54,22.60
2006,08,04,16,55,22.70
2006,08,04,16,56,22.80
2006,08,04,16,57,22.70
2006,08,04,16,58,22.70
2006,08,04,16,59,22.60
2006,08,04,17,00,22.40
2006,08,04,17,01,22.20
2006,08,04,17,02,22.20
2006,08,04,17,03,22.20
2006,08,04,17,04,22.30
2006,08,04,17,05,22.30
2006,08,04,17,06,22.20
2006,08,04,17,07,22.10
2006,08,04,17,08,22.10
2006,08,04,17,09,22.20
2006,08,04,17,10,22.20
2006,08,04,17,11,22.30
2006,08,04,17,12,22.40
2006,08,04,17,13,22.40
2006,08,04,17,14,22.60
2006,08,04,17,15,22.70
2006,08,04,17,16,22.90
2006,08,04,17,17,23.00
2006,08,04,17,18,22.90
2006,08,04,17,19,22.70
2006,08,04,17,20,22.60